Total_Precipitation_Accumulation
0.22 0.33 0.24 0.18 0.11 0.24 0.81 0.16 0.13 0.10 0.03 0.02 0.00 0.00 0.00 0.00 0.00 0.00 0.01 0.06 0.11 0.23 0.16 0.40 0.38 0.44 0.20 0.08 0.13 0.10 0.04 0.01 0.07 0.06 0.04 0.04 0.01 0.01 0.00 0.01 0.02 0.06 0.16
0.31 0.35 0.35 0.18 0.13 0.14 0.25 0.15 0.11 0.24 0.01 0.00 0.00 0.00 0.00 0.00 0.00 0.00 0.00 0.05 0.09 0.14 0.22 0.44 0.45 0.32 0.48 0.23 0.06 0.10 0.11 0.05 0.02 0.11 0.07 0.08 0.06 0.04 0.01 0.01 0.02 0.01 0.02
0.21 0.24 0.30 0.25 0.23 0.24 0.18 0.15 0.12 0.27 0.02 0.00 0.00 0.00 0.00 0.00 0.00 0.00 0.00 0.02 0.04 0.09 0.21 0.44 0.62 0.40 0.29 0.61 0.45 0.24 0.31 0.32 0.12 0.05 0.04 0.02 0.04 0.07 0.04 0.02 0.05 0.05 0.07
0.11 0.20 0.37 0.27 0.27 0.21 0.21 0.18 0.14 0.08 0.00 0.00 0.00 0.00 0.00 0.00 0.00 0.00 0.00 0.00 0.00 0.01 0.08 0.23 0.48 0.62 0.51 0.41 0.92 0.94 0.69 0.56 0.51 0.33 0.18 0.16 0.08 0.08 0.04 0.05 0.11 0.15 0.12
0.12 0.31 0.38 0.39 0.22 0.26 0.19 0.13 0.12 0.05 0.00 0.00 0.00 0.00 0.00 0.00 0.00 0.00 0.00 0.00 0.00 0.00 0.00 0.09 0.17 0.29 0.35 0.48 0.66 0.61 0.71 0.74 0.68 0.57 0.53 0.43 0.34 0.29 0.29 0.24 0.17 0.13 0.15
0.12 0.16 0.34 0.56 0.27 0.22 0.24 0.20 0.09 0.00 0.00 0.00 0.00 0.00 0.00 0.00 0.00 0.00 0.00 0.00 0.00 0.00 0.00 0.01 0.05 0.09 0.14 0.27 0.45 0.53 0.59 0.65 0.62 0.54 0.44 0.45 0.50 0.47 0.42 0.32 0.26 0.22 0.24
0.11 0.15 0.26 0.51 0.26 0.21 0.21 0.15 0.04 0.00 0.00 0.00 0.00 0.00 0.00 0.00 0.00 0.00 0.00 0.00 0.00 0.00 0.00 0.00 0.01 0.05 0.16 0.21 0.16 0.16 0.21 0.37 0.50 0.59 0.64 0.47 0.54 0.51 0.59 0.60 0.61 0.46 0.45
0.05 0.15 0.36 0.28 0.21 0.24 0.26 0.16 0.10 0.04 0.00 0.00 0.00 0.00 0.01 0.02 0.00 0.00 0.00 0.00 0.00 0.00 0.00 0.00 0.00 0.00 0.04 0.06 0.02 0.02 0.02 0.02 0.07 0.17 0.26 0.27 0.30 0.32 0.31 0.28 0.33 0.46 0.50
0.02 0.14 0.28 0.19 0.30 0.26 0.33 0.20 0.05 0.02 0.01 0.00 0.00 0.00 0.01 0.03 0.01 0.00 0.00 0.00 0.00 0.00 0.00 0.00 0.00 0.00 0.00 0.00 0.00 0.00 0.00 0.00 0.00 0.00 0.00 0.01 0.02 0.04 0.07 0.09 0.10 0.17 0.25
0.01 0.03 0.15 0.21 0.20 0.19 0.28 0.21 0.02 0.01 0.00 0.00 0.00 0.00 0.00 0.01 0.01 0.01 0.00 0.00 0.00 0.00 0.00 0.00 0.00 0.00 0.00 0.00 0.00 0.00 0.00 0.00 0.00 0.00 0.00 0.00 0.00 0.00 0.00 0.00 0.01 0.01 0.01
0.00 0.00 0.07 0.21 0.12 0.12 0.16 0.18 0.10 0.00 0.00 0.00 0.00 0.00 0.00 0.00 0.00 0.00 0.00 0.00 0.00 0.00 0.00 0.00 0.00 0.00 0.00 0.00 0.00 0.00 0.00 0.00 0.00 0.00 0.00 0.00 0.00 0.00 0.00 0.00 0.00 0.00 0.01
0.00 0.00 0.02 0.05 0.07 0.04 0.06 0.12 0.13 0.04 0.00 0.00 0.00 0.00 0.00 0.00 0.00 0.00 0.00 0.00 0.00 0.00 0.00 0.00 0.00 0.00 0.00 0.00 0.00 0.00 0.00 0.00 0.00 0.00 0.00 0.00 0.00 0.00 0.00 0.00 0.00 0.00 0.00
0.00 0.00 0.01 0.04 0.01 0.02 0.02 0.03 0.09 0.07 0.02 0.00 0.00 0.00 0.00 0.00 0.00 0.00 0.00 0.00 0.00 0.00 0.00 0.00 0.00 0.00 0.00 0.00 0.00 0.00 0.00 0.00 0.00 0.00 0.00 0.00 0.00 0.00 0.00 0.00 0.00 0.00 0.00
0.00 0.00 0.00 0.00 0.00 0.00 0.00 0.00 0.01 0.01 0.01 0.00 0.00 0.00 0.00 0.00 0.00 0.00 0.00 0.00 0.00 0.00 0.00 0.00 0.00 0.00 0.00 0.00 0.00 0.00 0.00 0.00 0.00 0.00 0.00 0.00 0.00 0.00 0.00 0.00 0.00 0.00 0.00
0.00 0.00 0.00 0.00 0.00 0.00 0.00 0.00 0.00 0.00 0.00 0.00 0.00 0.00 0.00 0.00 0.00 0.00 0.00 0.00 0.00 0.00 0.00 0.00 0.00 0.00 0.00 0.00 0.00 0.00 0.00 0.00 0.00 0.00 0.00 0.00 0.00 0.00 0.00 0.00 0.00 0.00 0.00
0.00 0.00 0.00 0.00 0.00 0.00 0.00 0.00 0.00 0.00 0.00 0.00 0.00 0.00 0.00 0.00 0.00 0.00 0.00 0.00 0.00 0.00 0.00 0.00 0.00 0.00 0.00 0.00 0.00 0.00 0.00 0.00 0.00 0.00 0.00 0.00 0.00 0.00 0.00 0.00 0.00 0.00 0.00
0.00 0.00 0.00 0.00 0.00 0.00 0.00 0.00 0.00 0.00 0.00 0.00 0.00 0.00 0.00 0.00 0.00 0.00 0.00 0.00 0.00 0.00 0.00 0.00 0.00 0.00 0.00 0.00 0.00 0.00 0.00 0.00 0.00 0.00 0.00 0.00 0.00 0.00 0.00 0.00 0.00 0.00 0.00
0.00 0.00 0.00 0.00 0.00 0.00 0.00 0.00 0.00 0.00 0.00 0.00 0.00 0.00 0.00 0.00 0.02 0.01 0.00 0.01 0.00 0.01 0.02 0.01 0.00 0.00 0.00 0.00 0.01 0.01 0.00 0.00 0.00 0.00 0.00 0.00 0.00 0.00 0.00 0.00 0.00 0.00 0.00
0.00 0.00 0.00 0.00 0.00 0.01 0.00 0.00 0.00 0.00 0.00 0.04 0.02 0.00 0.00 0.01 0.02 0.02 0.03 0.02 0.01 0.02 0.06 0.05 0.02 0.01 0.00 0.00 0.01 0.00 0.00 0.00 0.00 0.00 0.00 0.00 0.00 0.00 0.00 0.00 0.00 0.00 0.00
0.00 0.00 0.00 0.00 0.01 0.01 0.03 0.04 0.05 0.04 0.02 0.10 0.05 0.02 0.01 0.02 0.04 0.05 0.04 0.07 0.07 0.14 0.20 0.18 0.10 0.06 0.02 0.00 0.00 0.00 0.02 0.00 0.00 0.00 0.00 0.00 0.00 0.00 0.00 0.00 0.00 0.00 0.00
0.00 0.00 0.00 0.00 0.01 0.02 0.04 0.05 0.05 0.10 0.12 0.14 0.07 0.05 0.07 0.08 0.09 0.15 0.12 0.10 0.06 0.09 0.07 0.06 0.05 0.02 0.00 0.01 0.01 0.00 0.01 0.00 0.01 0.00 0.00 0.00 0.00 0.00 0.00 0.00 0.00 0.01 0.01
0.01 0.01 0.02 0.02 0.05 0.04 0.03 0.03 0.10 0.18 0.24 0.22 0.22 0.26 0.14 0.15 0.16 0.18 0.14 0.09 0.08 0.10 0.14 0.12 0.06 0.01 0.05 0.06 0.05 0.04 0.01 0.01 0.01 0.01 0.00 0.00 0.00 0.00 0.00 0.00 0.00 0.00 0.02
0.05 0.04 0.05 0.06 0.12 0.11 0.16 0.25 0.32 0.22 0.24 0.17 0.19 0.17 0.13 0.12 0.20 0.11 0.21 0.27 0.12 0.12 0.11 0.14 0.04 0.05 0.07 0.09 0.07 0.07 0.03 0.04 0.04 0.03 0.05 0.00 0.00 0.00 0.00 0.00 0.00 0.02 0.07
0.04 0.04 0.04 0.10 0.22 0.38 0.57 0.45 0.39 0.24 0.20 0.12 0.08 0.06 0.08 0.13 0.16 0.21 0.28 0.17 0.17 0.14 0.19 0.12 0.05 0.07 0.08 0.07 0.10 0.10 0.10 0.03 0.01 0.00 0.02 0.01 0.00 0.00 0.00 0.00 0.01 0.10 0.15
0.13 0.29 0.53 0.51 0.42 0.33 0.24 0.14 0.13 0.07 0.10 0.12 0.07 0.08 0.11 0.07 0.31 0.39 0.14 0.07 0.08 0.07 0.12 0.13 0.10 0.06 0.07 0.06 0.04 0.03 0.04 0.04 0.02 0.01 0.03 0.03 0.03 0.01 0.00 0.02 0.07 0.15 0.15
0.32 0.17 0.14 0.11 0.08 0.07 0.12 0.09 0.06 0.03 0.03 0.05 0.12 0.09 0.27 0.11 0.21 0.18 0.07 0.03 0.06 0.16 0.08 0.08 0.07 0.05 0.04 0.05 0.04 0.03 0.16 0.16 0.09 0.05 0.07 0.10 0.09 0.13 0.06 0.06 0.10 0.12 0.12